Time,TemperatureF,DewpointF,PressureIn,WindDirection,WindDirectionDegrees,WindSpeedMPH,WindSpeedGustMPH,Humidity,HourlyPrecipIn,Conditions,Clouds,dailyrainin,SoftwareType,DateUTC
2013-08-29 00:01:00,65.2,62.0,29.53,WSW,247,0.0,4.0,92,0.00,,,0.00,Rainwise IP-100,2013-08-29 04:01:00,
2013-08-29 00:06:00,65.0,63.0,29.52,WSW,247,1.2,0.0,93,0.00,,,0.00,Rainwise IP-100,2013-08-29 04:06:00,
2013-08-29 00:11:00,64.7,62.0,29.53,WSW,247,0.0,2.0,94,0.00,,,0.00,Rainwise IP-100,2013-08-29 04:11:00,
2013-08-29 00:16:00,64.4,62.0,29.52,WSW,247,0.0,0.0,94,0.00,,,0.00,Rainwise IP-100,2013-08-29 04:16:00,
2013-08-29 00:21:00,64.2,62.0,29.53,WSW,247,0.0,0.0,95,0.00,,,0.00,Rainwise IP-100,2013-08-29 04:21:00,
2013-08-29 00:26:00,64.0,62.0,29.53,WSW,247,0.0,0.0,95,0.00,,,0.00,Rainwise IP-100,2013-08-29 04:26:00,
2013-08-29 00:31:00,63.9,63.0,29.52,WSW,247,0.0,0.0,96,0.00,,,0.00,Rainwise IP-100,2013-08-29 04:31:00,
2013-08-29 00:36:00,63.8,62.0,29.53,WSW,247,0.0,0.0,96,0.00,,,0.00,Rainwise IP-100,2013-08-29 04:36:00,
2013-08-29 00:41:00,63.6,62.0,29.52,WSW,247,1.2,1.2,96,0.00,,,0.00,Rainwise IP-100,2013-08-29 04:41:00,
2013-08-29 00:46:00,63.6,62.0,29.52,WSW,247,1.2,1.2,96,0.00,,,0.00,Rainwise IP-100,2013-08-29 04:46:00,
2013-08-29 00:51:00,63.6,62.0,29.53,WSW,247,0.0,2.0,96,0.00,,,0.00,Rainwise IP-100,2013-08-29 04:51:00,
2013-08-29 00:56:00,63.5,62.0,29.53,WSW,247,0.0,0.0,96,0.00,,,0.00,Rainwise IP-100,2013-08-29 04:56:00,
2013-08-29 01:01:00,63.5,62.0,29.52,WSW,247,0.0,1.0,96,0.00,,,0.00,Rainwise IP-100,2013-08-29 05:01:00,
2013-08-29 01:07:00,63.5,62.0,29.52,WSW,247,0.0,2.0,96,0.00,,,0.00,Rainwise IP-100,2013-08-29 05:07:00,
2013-08-29 01:12:00,63.5,62.0,29.52,WSW,247,1.6,2.0,96,0.00,,,0.00,Rainwise IP-100,2013-08-29 05:12:00,
2013-08-29 01:17:00,63.5,62.0,29.52,WSW,247,0.0,2.0,96,0.00,,,0.00,Rainwise IP-100,2013-08-29 05:17:00,
2013-08-29 01:22:00,63.4,62.0,29.52,NNW,337,0.0,0.0,96,0.00,,,0.00,Rainwise IP-100,2013-08-29 05:22:00,
2013-08-29 01:27:00,63.2,62.0,29.52,NNW,337,0.0,1.0,96,0.00,,,0.00,Rainwise IP-100,2013-08-29 05:27:00,
2013-08-29 01:32:00,63.1,62.0,29.52,NNW,337,1.9,2.0,96,0.00,,,0.00,Rainwise IP-100,2013-08-29 05:32:00,
2013-08-29 01:37:00,63.0,62.0,29.52,NNW,337,0.0,3.0,97,0.00,,,0.00,Rainwise IP-100,2013-08-29 05:37:00,
2013-08-29 01:42:00,63.0,62.0,29.52,NNW,337,0.0,1.0,97,0.00,,,0.00,Rainwise IP-100,2013-08-29 05:42:00,
2013-08-29 01:47:00,63.0,62.0,29.52,NNW,337,0.0,0.0,97,0.00,,,0.00,Rainwise IP-100,2013-08-29 05:47:00,
2013-08-29 01:52:00,62.9,62.0,29.52,NNW,337,1.4,2.0,97,0.00,,,0.00,Rainwise IP-100,2013-08-29 05:52:00,
2013-08-29 01:57:00,62.8,61.0,29.51,NW,315,3.5,3.5,97,0.00,,,0.00,Rainwise IP-100,2013-08-29 05:57:00,
2013-08-29 02:02:00,62.8,61.0,29.51,North,360,3.3,4.0,97,0.00,,,0.00,Rainwise IP-100,2013-08-29 06:02:00,
2013-08-29 02:07:00,62.9,62.0,29.51,NNW,337,2.6,4.0,97,0.00,,,0.00,Rainwise IP-100,2013-08-29 06:07:00,
2013-08-29 02:12:00,62.9,62.0,29.51,NNW,337,2.3,3.0,97,0.00,,,0.00,Rainwise IP-100,2013-08-29 06:12:00,
2013-08-29 02:17:00,63.0,62.0,29.51,WNW,292,1.4,3.0,97,0.00,,,0.00,Rainwise IP-100,2013-08-29 06:17:00,
2013-08-29 02:23:00,63.0,62.0,29.51,NNW,337,1.9,4.0,97,0.00,,,0.00,Rainwise IP-100,2013-08-29 06:23:00,
2013-08-29 02:28:00,63.0,62.0,29.52,NNW,337,1.6,3.0,97,0.00,,,0.00,Rainwise IP-100,2013-08-29 06:28:00,
2013-08-29 02:33:00,62.9,62.0,29.51,NNW,337,1.6,2.0,97,0.00,,,0.00,Rainwise IP-100,2013-08-29 06:33:00,
2013-08-29 02:38:00,62.9,62.0,29.52,NNW,337,1.9,1.9,97,0.00,,,0.00,Rainwise IP-100,2013-08-29 06:38:00,
2013-08-29 02:43:00,62.9,62.0,29.52,NNW,337,0.0,2.0,96,0.00,,,0.00,Rainwise IP-100,2013-08-29 06:43:00,
2013-08-29 02:48:00,62.8,61.0,29.52,NNW,337,2.8,4.0,96,0.00,,,0.00,Rainwise IP-100,2013-08-29 06:48:00,
2013-08-29 02:53:00,62.6,61.0,29.52,NNW,337,1.9,3.0,96,0.00,,,0.00,Rainwise IP-100,2013-08-29 06:53:00,
2013-08-29 02:58:00,62.6,61.0,29.52,NNW,337,1.4,3.0,97,0.00,,,0.00,Rainwise IP-100,2013-08-29 06:58:00,
2013-08-29 03:03:00,62.5,61.0,29.52,WSW,247,1.2,3.0,97,0.00,,,0.00,Rainwise IP-100,2013-08-29 07:03:00,
2013-08-29 03:08:00,62.5,61.0,29.52,NNW,337,2.3,3.0,97,0.00,,,0.00,Rainwise IP-100,2013-08-29 07:08:00,
2013-08-29 03:13:00,62.6,61.0,29.52,NNW,337,1.6,3.0,97,0.00,,,0.00,Rainwise IP-100,2013-08-29 07:13:00,
2013-08-29 03:18:00,62.6,61.0,29.52,NNW,337,0.0,1.0,97,0.00,,,0.00,Rainwise IP-100,2013-08-29 07:18:00,
2013-08-29 03:23:00,62.7,61.0,29.52,NNW,337,0.0,0.0,97,0.00,,,0.00,Rainwise IP-100,2013-08-29 07:23:00,
2013-08-29 03:28:00,62.8,61.0,29.53,WNW,292,0.0,2.0,97,0.00,,,0.00,Rainwise IP-100,2013-08-29 07:28:00,
2013-08-29 03:33:00,62.7,61.0,29.53,WNW,292,0.0,1.0,97,0.00,,,0.00,Rainwise IP-100,2013-08-29 07:33:00,
2013-08-29 03:39:00,62.7,61.0,29.53,SSW,202,0.0,1.0,97,0.00,,,0.00,Rainwise IP-100,2013-08-29 07:39:00,
2013-08-29 03:44:00,62.8,61.0,29.52,SSW,202,0.0,0.0,97,0.00,,,0.00,Rainwise IP-100,2013-08-29 07:44:00,
2013-08-29 03:49:00,62.9,62.0,29.53,SSW,202,0.0,1.0,97,0.00,,,0.00,Rainwise IP-100,2013-08-29 07:49:00,
2013-08-29 03:54:00,62.9,62.0,29.53,SSW,202,0.0,0.0,97,0.00,,,0.00,Rainwise IP-100,2013-08-29 07:54:00,
2013-08-29 03:59:00,63.0,62.0,29.53,SSW,202,0.0,0.0,97,0.00,,,0.00,Rainwise IP-100,2013-08-29 07:59:00,
2013-08-29 04:04:00,63.1,62.0,29.53,SSW,202,0.0,0.0,97,0.00,,,0.00,Rainwise IP-100,2013-08-29 08:04:00,
2013-08-29 04:09:00,63.1,62.0,29.53,SSW,202,0.0,0.0,97,0.00,,,0.00,Rainwise IP-100,2013-08-29 08:09:00,
2013-08-29 04:14:00,63.2,62.0,29.54,WNW,292,0.0,1.0,97,0.00,,,0.00,Rainwise IP-100,2013-08-29 08:14:00,
2013-08-29 04:19:00,63.2,62.0,29.54,WNW,292,0.0,0.0,97,0.00,,,0.00,Rainwise IP-100,2013-08-29 08:19:00,
2013-08-29 04:24:00,63.1,62.0,29.54,NNE,22,3.7,4.0,97,0.00,,,0.00,Rainwise IP-100,2013-08-29 08:24:00,
2013-08-29 04:29:00,62.8,61.0,29.54,North,360,2.3,4.0,97,0.00,,,0.00,Rainwise IP-100,2013-08-29 08:29:00,
2013-08-29 04:34:00,62.6,61.0,29.54,North,360,0.0,3.0,97,0.00,,,0.00,Rainwise IP-100,2013-08-29 08:34:00,
2013-08-29 04:39:00,62.6,61.0,29.54,NNE,22,1.9,2.0,97,0.00,,,0.00,Rainwise IP-100,2013-08-29 08:39:00,
2013-08-29 04:44:00,62.5,61.0,29.54,NNW,337,1.4,4.0,97,0.00,,,0.00,Rainwise IP-100,2013-08-29 08:44:00,
2013-08-29 04:49:00,62.5,62.0,29.54,North,360,2.8,4.0,98,0.00,,,0.00,Rainwise IP-100,2013-08-29 08:49:00,
2013-08-29 04:55:00,62.4,62.0,29.54,NNW,337,0.0,4.0,98,0.00,,,0.00,Rainwise IP-100,2013-08-29 08:55:00,
2013-08-29 05:00:00,62.5,62.0,29.55,North,360,0.0,3.0,98,0.00,,,0.00,Rainwise IP-100,2013-08-29 09:00:00,
2013-08-29 05:05:00,62.5,62.0,29.55,North,360,1.9,2.0,98,0.00,,,0.00,Rainwise IP-100,2013-08-29 09:05:00,
2013-08-29 05:10:00,62.5,62.0,29.55,North,360,0.0,3.0,98,0.00,,,0.00,Rainwise IP-100,2013-08-29 09:10:00,
2013-08-29 05:15:00,62.6,62.0,29.55,North,360,0.0,1.0,98,0.00,,,0.00,Rainwise IP-100,2013-08-29 09:15:00,
2013-08-29 05:20:00,62.6,62.0,29.55,North,360,0.0,0.0,98,0.00,,,0.00,Rainwise IP-100,2013-08-29 09:20:00,
2013-08-29 05:25:00,62.6,62.0,29.56,North,360,0.0,0.0,98,0.00,,,0.00,Rainwise IP-100,2013-08-29 09:25:00,
2013-08-29 05:30:00,62.8,62.0,29.56,NNW,337,0.0,2.0,98,0.00,,,0.00,Rainwise IP-100,2013-08-29 09:30:00,
2013-08-29 05:35:00,63.0,62.0,29.56,NNW,337,0.0,1.0,98,0.00,,,0.00,Rainwise IP-100,2013-08-29 09:35:00,
2013-08-29 05:40:00,63.1,62.0,29.57,NNW,337,0.0,0.0,98,0.00,,,0.00,Rainwise IP-100,2013-08-29 09:40:00,
2013-08-29 05:45:00,63.2,62.0,29.57,NNW,337,0.0,0.0,98,0.00,,,0.00,Rainwise IP-100,2013-08-29 09:45:00,
2013-08-29 05:50:00,63.3,62.0,29.57,NNW,337,0.0,0.0,98,0.00,,,0.00,Rainwise IP-100,2013-08-29 09:50:00,
2013-08-29 05:55:00,63.4,63.0,29.57,NNW,337,3.3,3.3,98,0.00,,,0.00,Rainwise IP-100,2013-08-29 09:55:00,
2013-08-29 06:00:00,63.4,63.0,29.57,NNW,337,2.3,4.0,98,0.00,,,0.00,Rainwise IP-100,2013-08-29 10:00:00,
2013-08-29 06:05:00,63.5,63.0,29.57,North,360,0.0,3.0,98,0.00,,,0.00,Rainwise IP-100,2013-08-29 10:05:00,
2013-08-29 06:11:00,63.5,63.0,29.58,North,360,0.0,2.0,98,0.00,,,0.00,Rainwise IP-100,2013-08-29 10:11:00,
2013-08-29 06:16:00,63.5,63.0,29.58,North,360,0.0,2.0,98,0.00,,,0.00,Rainwise IP-100,2013-08-29 10:16:00,
2013-08-29 06:21:00,63.5,63.0,29.58,NNW,337,2.1,2.1,98,0.00,,,0.00,Rainwise IP-100,2013-08-29 10:21:00,
2013-08-29 06:26:00,63.6,62.0,29.58,NNW,337,4.0,4.0,97,0.00,,,0.00,Rainwise IP-100,2013-08-29 10:26:00,
2013-08-29 06:31:00,63.7,62.0,29.58,North,360,1.9,4.0,97,0.00,,,0.00,Rainwise IP-100,2013-08-29 10:31:00,
2013-08-29 06:36:00,63.8,62.0,29.58,NW,315,0.0,3.0,97,0.00,,,0.00,Rainwise IP-100,2013-08-29 10:36:00,
2013-08-29 06:41:00,63.9,63.0,29.58,North,360,3.0,4.0,97,0.06,,,0.01,Rainwise IP-100,2013-08-29 10:41:00,
2013-08-29 06:46:00,64.0,63.0,29.59,North,360,0.0,3.0,97,0.06,,,0.01,Rainwise IP-100,2013-08-29 10:46:00,
2013-08-29 06:51:00,64.1,63.0,29.59,North,360,0.0,1.0,97,0.00,,,0.01,Rainwise IP-100,2013-08-29 10:51:00,
2013-08-29 06:56:00,64.2,63.0,29.59,North,360,2.6,2.6,97,0.00,,,0.01,Rainwise IP-100,2013-08-29 10:56:00,
2013-08-29 07:01:00,64.3,63.0,29.59,NNW,337,0.0,3.0,97,0.00,,,0.01,Rainwise IP-100,2013-08-29 11:01:00,
2013-08-29 07:06:00,64.4,63.0,29.59,NNW,337,0.0,2.0,97,0.00,,,0.01,Rainwise IP-100,2013-08-29 11:06:00,
2013-08-29 07:11:00,64.6,63.0,29.59,NNE,22,3.5,3.5,97,0.00,,,0.01,Rainwise IP-100,2013-08-29 11:11:00,
2013-08-29 07:16:00,64.7,63.0,29.59,NNE,22,0.0,3.0,97,0.00,,,0.01,Rainwise IP-100,2013-08-29 11:16:00,
2013-08-29 07:21:00,64.9,64.0,29.59,NNE,22,1.2,2.0,97,0.00,,,0.01,Rainwise IP-100,2013-08-29 11:21:00,
2013-08-29 07:27:00,65.1,64.0,29.59,NNE,22,0.0,2.0,97,0.00,,,0.01,Rainwise IP-100,2013-08-29 11:27:00,
2013-08-29 07:32:00,65.3,64.0,29.59,SSE,157,1.2,2.0,97,0.00,,,0.01,Rainwise IP-100,2013-08-29 11:32:00,
2013-08-29 07:37:00,65.5,64.0,29.59,SSE,157,0.0,1.0,97,0.00,,,0.01,Rainwise IP-100,2013-08-29 11:37:00,
2013-08-29 07:42:00,65.7,64.0,29.59,SSE,157,0.0,0.0,97,0.00,,,0.01,Rainwise IP-100,2013-08-29 11:42:00,
2013-08-29 07:47:00,65.9,64.0,29.59,SSE,157,0.0,0.0,96,0.00,,,0.01,Rainwise IP-100,2013-08-29 11:47:00,
2013-08-29 07:52:00,66.2,65.0,29.59,NE,45,1.4,2.0,96,0.00,,,0.01,Rainwise IP-100,2013-08-29 11:52:00,
2013-08-29 07:57:00,66.3,65.0,29.59,NE,45,1.9,2.0,96,0.00,,,0.01,Rainwise IP-100,2013-08-29 11:57:00,
2013-08-29 08:02:00,66.3,65.0,29.60,NE,45,0.0,1.0,96,0.00,,,0.01,Rainwise IP-100,2013-08-29 12:02:00,
2013-08-29 08:07:00,66.6,65.0,29.60,NNE,22,1.6,3.0,95,0.00,,,0.01,Rainwise IP-100,2013-08-29 12:07:00,
2013-08-29 08:12:00,66.9,66.0,29.60,North,360,1.4,2.0,95,0.00,,,0.01,Rainwise IP-100,2013-08-29 12:12:00,
2013-08-29 08:17:00,67.1,66.0,29.60,NNE,22,0.0,2.0,96,0.00,,,0.01,Rainwise IP-100,2013-08-29 12:17:00,
2013-08-29 08:22:00,67.3,66.0,29.61,NNE,22,0.0,2.0,96,0.00,,,0.01,Rainwise IP-100,2013-08-29 12:22:00,
2013-08-29 08:27:00,67.4,66.0,29.61,NNW,337,0.0,2.0,95,0.00,,,0.01,Rainwise IP-100,2013-08-29 12:27:00,
2013-08-29 08:32:00,67.5,66.0,29.61,NNW,337,0.0,0.0,95,0.00,,,0.01,Rainwise IP-100,2013-08-29 12:32:00,
2013-08-29 08:37:00,67.6,66.0,29.61,NE,45,0.0,1.0,96,0.00,,,0.01,Rainwise IP-100,2013-08-29 12:37:00,
2013-08-29 08:43:00,67.8,66.0,29.61,NE,45,0.0,0.0,96,0.00,,,0.01,Rainwise IP-100,2013-08-29 12:43:00,
2013-08-29 08:48:00,68.0,66.0,29.61,NNW,337,1.6,1.6,95,0.00,,,0.01,Rainwise IP-100,2013-08-29 12:48:00,
2013-08-29 08:53:00,68.2,66.0,29.61,NNW,337,0.0,2.0,95,0.00,,,0.01,Rainwise IP-100,2013-08-29 12:53:00,
2013-08-29 08:58:00,68.4,67.0,29.61,NNW,337,0.0,1.0,95,0.00,,,0.01,Rainwise IP-100,2013-08-29 12:58:00,
2013-08-29 09:03:00,68.5,66.0,29.61,NNW,337,0.0,1.0,94,0.00,,,0.01,Rainwise IP-100,2013-08-29 13:03:00,
2013-08-29 09:08:00,68.6,66.0,29.61,WNW,292,0.0,1.0,92,0.00,,,0.01,Rainwise IP-100,2013-08-29 13:08:00,
2013-08-29 09:13:00,68.9,66.0,29.61,WNW,292,0.0,0.0,93,0.00,,,0.01,Rainwise IP-100,2013-08-29 13:13:00,
2013-08-29 09:18:00,69.3,67.0,29.61,WSW,247,0.0,0.0,95,0.00,,,0.01,Rainwise IP-100,2013-08-29 13:18:00,
2013-08-29 09:23:00,69.3,67.0,29.61,WSW,247,0.0,1.0,94,0.00,,,0.01,Rainwise IP-100,2013-08-29 13:23:00,
2013-08-29 09:28:00,69.6,67.0,29.61,SW,225,0.0,1.0,93,0.00,,,0.01,Rainwise IP-100,2013-08-29 13:28:00,
2013-08-29 09:33:00,70.2,68.0,29.61,SW,225,0.0,0.0,94,0.00,,,0.01,Rainwise IP-100,2013-08-29 13:33:00,
2013-08-29 09:38:00,70.5,69.0,29.61,South,180,1.2,2.0,94,0.00,,,0.01,Rainwise IP-100,2013-08-29 13:38:00,
2013-08-29 09:43:00,70.8,68.0,29.61,SW,225,0.0,3.0,93,0.00,,,0.01,Rainwise IP-100,2013-08-29 13:43:00,
2013-08-29 09:48:00,71.3,69.0,29.61,SSW,202,3.3,4.0,94,0.00,,,0.01,Rainwise IP-100,2013-08-29 13:48:00,
2013-08-29 09:53:00,71.4,69.0,29.61,SSW,202,0.0,3.0,94,0.00,,,0.01,Rainwise IP-100,2013-08-29 13:53:00,
2013-08-29 09:59:00,71.1,69.0,29.61,SW,225,2.3,2.3,93,0.00,,,0.01,Rainwise IP-100,2013-08-29 13:59:00,
2013-08-29 10:04:00,71.0,68.0,29.61,SW,225,3.3,4.0,91,0.00,,,0.01,Rainwise IP-100,2013-08-29 14:04:00,
2013-08-29 10:09:00,70.8,67.0,29.61,SW,225,4.0,6.0,89,0.00,,,0.01,Rainwise IP-100,2013-08-29 14:09:00,
2013-08-29 10:14:00,70.4,66.0,29.61,SW,225,2.8,5.0,88,0.00,,,0.01,Rainwise IP-100,2013-08-29 14:14:00,
2013-08-29 10:19:00,70.4,66.0,29.61,SW,225,1.6,6.0,87,0.00,,,0.01,Rainwise IP-100,2013-08-29 14:19:00,
2013-08-29 10:24:00,70.8,66.0,29.61,WSW,247,1.4,3.0,87,0.00,,,0.01,Rainwise IP-100,2013-08-29 14:24:00,
2013-08-29 10:29:00,71.1,67.0,29.61,SW,225,4.7,5.0,88,0.00,,,0.01,Rainwise IP-100,2013-08-29 14:29:00,
2013-08-29 10:34:00,71.0,66.0,29.61,SW,225,3.7,7.0,86,0.00,,,0.01,Rainwise IP-100,2013-08-29 14:34:00,
2013-08-29 10:39:00,70.9,66.0,29.61,SW,225,4.4,7.0,86,0.00,,,0.01,Rainwise IP-100,2013-08-29 14:39:00,
2013-08-29 10:44:00,70.9,66.0,29.60,SW,225,1.4,6.0,86,0.00,,,0.01,Rainwise IP-100,2013-08-29 14:44:00,
2013-08-29 10:49:00,71.3,66.0,29.61,SW,225,2.3,4.0,86,0.00,,,0.01,Rainwise IP-100,2013-08-29 14:49:00,
2013-08-29 10:54:00,71.7,68.0,29.60,WSW,247,3.0,4.0,88,0.00,,,0.01,Rainwise IP-100,2013-08-29 14:54:00,
2013-08-29 10:59:00,71.5,67.0,29.61,SW,225,2.8,6.0,86,0.00,,,0.01,Rainwise IP-100,2013-08-29 14:59:00,
2013-08-29 11:04:00,71.1,65.0,29.60,SW,225,1.4,4.0,83,0.00,,,0.01,Rainwise IP-100,2013-08-29 15:04:00,
2013-08-29 11:09:00,71.6,67.0,29.60,SE,135,0.0,1.0,86,0.00,,,0.01,Rainwise IP-100,2013-08-29 15:09:00,
2013-08-29 11:15:00,72.2,69.0,29.60,West,270,0.0,1.0,89,0.00,,,0.01,Rainwise IP-100,2013-08-29 15:15:00,
2013-08-29 11:20:00,72.4,68.0,29.60,SW,225,3.7,3.7,88,0.00,,,0.01,Rainwise IP-100,2013-08-29 15:20:00,
2013-08-29 11:25:00,72.5,68.0,29.59,SSW,202,0.0,4.0,86,0.00,,,0.01,Rainwise IP-100,2013-08-29 15:25:00,
2013-08-29 11:30:00,72.8,68.0,29.59,SSE,157,2.1,3.0,86,0.00,,,0.01,Rainwise IP-100,2013-08-29 15:30:00,
2013-08-29 11:35:00,73.7,69.0,29.59,ESE,112,2.1,5.0,87,0.00,,,0.01,Rainwise IP-100,2013-08-29 15:35:00,
2013-08-29 11:40:00,74.5,70.0,29.59,SE,135,1.9,7.0,85,0.00,,,0.01,Rainwise IP-100,2013-08-29 15:40:00,
2013-08-29 11:45:00,75.1,69.0,29.59,ENE,67,3.0,7.0,83,0.00,,,0.01,Rainwise IP-100,2013-08-29 15:45:00,
2013-08-29 11:50:00,75.9,70.0,29.59,SSW,202,4.7,5.0,83,0.00,,,0.01,Rainwise IP-100,2013-08-29 15:50:00,
2013-08-29 11:55:00,75.8,69.0,29.59,ENE,67,0.0,7.0,80,0.00,,,0.01,Rainwise IP-100,2013-08-29 15:55:00,
2013-08-29 12:00:00,75.3,67.0,29.59,ESE,112,4.2,7.0,76,0.00,,,0.01,Rainwise IP-100,2013-08-29 16:00:00,
2013-08-29 12:05:00,75.2,66.0,29.59,South,180,3.7,8.0,73,0.00,,,0.01,Rainwise IP-100,2013-08-29 16:05:00,
2013-08-29 12:10:00,75.2,65.0,29.59,ENE,67,2.8,7.0,70,0.00,,,0.01,Rainwise IP-100,2013-08-29 16:10:00,
2013-08-29 12:15:00,74.1,64.0,29.59,NE,45,1.2,10.0,70,0.00,,,0.01,Rainwise IP-100,2013-08-29 16:15:00,
2013-08-29 12:20:00,73.0,63.0,29.59,ESE,112,1.6,2.0,72,0.00,,,0.01,Rainwise IP-100,2013-08-29 16:20:00,
2013-08-29 12:25:00,72.9,64.0,29.59,East,90,2.6,7.0,73,0.00,,,0.01,Rainwise IP-100,2013-08-29 16:25:00,
2013-08-29 12:31:00,73.1,64.0,29.59,SSW,202,0.0,4.0,73,0.00,,,0.01,Rainwise IP-100,2013-08-29 16:31:00,
2013-08-29 12:36:00,73.6,64.0,29.59,WSW,247,3.0,6.0,73,0.00,,,0.01,Rainwise IP-100,2013-08-29 16:36:00,
2013-08-29 12:41:00,73.4,64.0,29.59,South,180,5.6,6.0,73,0.00,,,0.01,Rainwise IP-100,2013-08-29 16:41:00,
2013-08-29 12:46:00,72.9,64.0,29.59,South,180,2.1,7.0,73,0.00,,,0.01,Rainwise IP-100,2013-08-29 16:46:00,
2013-08-29 12:51:00,72.8,63.0,29.59,SSW,202,0.0,4.0,73,0.00,,,0.01,Rainwise IP-100,2013-08-29 16:51:00,
2013-08-29 12:56:00,73.1,64.0,29.59,ENE,67,5.6,5.6,73,0.00,,,0.01,Rainwise IP-100,2013-08-29 16:56:00,
2013-08-29 13:01:00,73.3,64.0,29.59,SE,135,2.3,5.0,73,0.00,,,0.01,Rainwise IP-100,2013-08-29 17:01:00,
2013-08-29 13:06:00,73.7,64.0,29.59,West,270,1.6,2.0,72,0.00,,,0.01,Rainwise IP-100,2013-08-29 17:06:00,
2013-08-29 13:11:00,74.1,64.0,29.59,SE,135,0.0,4.0,72,0.00,,,0.01,Rainwise IP-100,2013-08-29 17:11:00,
2013-08-29 13:16:00,73.9,64.0,29.59,SSW,202,1.9,8.0,71,0.00,,,0.01,Rainwise IP-100,2013-08-29 17:16:00,
2013-08-29 13:21:00,73.8,63.0,29.59,ESE,112,0.0,4.0,70,0.00,,,0.01,Rainwise IP-100,2013-08-29 17:21:00,
2013-08-29 13:26:00,74.0,64.0,29.59,SSW,202,4.9,5.0,70,0.00,,,0.01,Rainwise IP-100,2013-08-29 17:26:00,
2013-08-29 13:31:00,73.5,64.0,29.59,SSW,202,3.0,7.0,71,0.00,,,0.01,Rainwise IP-100,2013-08-29 17:31:00,
2013-08-29 13:36:00,73.1,63.0,29.59,WSW,247,4.4,5.0,71,0.00,,,0.01,Rainwise IP-100,2013-08-29 17:36:00,
2013-08-29 13:41:00,73.3,64.0,29.58,SSW,202,4.4,7.0,72,0.00,,,0.01,Rainwise IP-100,2013-08-29 17:41:00,
2013-08-29 13:47:00,73.1,64.0,29.59,West,270,0.0,6.0,73,0.00,,,0.01,Rainwise IP-100,2013-08-29 17:47:00,
2013-08-29 13:52:00,72.9,63.0,29.58,SSW,202,2.8,5.0,72,0.00,,,0.01,Rainwise IP-100,2013-08-29 17:52:00,
2013-08-29 13:57:00,72.5,63.0,29.58,SW,225,4.2,7.0,72,0.00,,,0.01,Rainwise IP-100,2013-08-29 17:57:00,
2013-08-29 14:02:00,72.2,63.0,29.57,WSW,247,2.6,5.0,72,0.00,,,0.01,Rainwise IP-100,2013-08-29 18:02:00,
2013-08-29 14:07:00,72.7,63.0,29.58,South,180,4.2,6.0,72,0.00,,,0.01,Rainwise IP-100,2013-08-29 18:07:00,
2013-08-29 14:12:00,73.4,64.0,29.57,SW,225,5.6,6.0,72,0.00,,,0.01,Rainwise IP-100,2013-08-29 18:12:00,
2013-08-29 14:17:00,72.8,63.0,29.57,SW,225,5.6,7.0,71,0.00,,,0.01,Rainwise IP-100,2013-08-29 18:17:00,
2013-08-29 14:22:00,72.1,62.0,29.57,WSW,247,5.8,5.8,72,0.00,,,0.01,Rainwise IP-100,2013-08-29 18:22:00,
2013-08-29 14:27:00,72.4,63.0,29.58,SSW,202,5.4,7.0,72,0.00,,,0.01,Rainwise IP-100,2013-08-29 18:27:00,
2013-08-29 14:32:00,72.3,63.0,29.57,SSW,202,4.7,6.0,72,0.00,,,0.01,Rainwise IP-100,2013-08-29 18:32:00,
2013-08-29 14:37:00,72.3,63.0,29.57,SW,225,1.4,5.0,72,0.00,,,0.01,Rainwise IP-100,2013-08-29 18:37:00,
2013-08-29 14:42:00,72.6,63.0,29.57,South,180,3.0,4.0,73,0.00,,,0.01,Rainwise IP-100,2013-08-29 18:42:00,
2013-08-29 14:47:00,72.6,63.0,29.57,SW,225,1.6,4.0,73,0.00,,,0.01,Rainwise IP-100,2013-08-29 18:47:00,
2013-08-29 14:52:00,72.5,63.0,29.57,SW,225,3.5,4.0,73,0.00,,,0.01,Rainwise IP-100,2013-08-29 18:52:00,
2013-08-29 14:57:00,72.4,63.0,29.57,South,180,3.5,4.0,73,0.00,,,0.01,Rainwise IP-100,2013-08-29 18:57:00,
2013-08-29 15:03:00,72.3,63.0,29.57,SW,225,2.3,4.0,73,0.00,,,0.01,Rainwise IP-100,2013-08-29 19:03:00,
2013-08-29 15:08:00,72.2,63.0,29.57,South,180,0.0,3.0,73,0.00,,,0.01,Rainwise IP-100,2013-08-29 19:08:00,
2013-08-29 15:13:00,72.4,63.0,29.57,SSW,202,3.0,3.0,74,0.00,,,0.01,Rainwise IP-100,2013-08-29 19:13:00,
2013-08-29 15:18:00,72.5,64.0,29.57,SSW,202,0.0,4.0,74,0.00,,,0.01,Rainwise IP-100,2013-08-29 19:18:00,
2013-08-29 15:23:00,72.6,64.0,29.57,SSE,157,1.2,2.0,74,0.00,,,0.01,Rainwise IP-100,2013-08-29 19:23:00,
2013-08-29 15:28:00,72.7,64.0,29.57,SW,225,1.6,2.0,74,0.00,,,0.01,Rainwise IP-100,2013-08-29 19:28:00,
2013-08-29 15:33:00,72.6,64.0,29.56,WSW,247,3.0,5.0,75,0.00,,,0.01,Rainwise IP-100,2013-08-29 19:33:00,
2013-08-29 15:38:00,72.4,64.0,29.57,SSW,202,5.6,6.0,75,0.00,,,0.01,Rainwise IP-100,2013-08-29 19:38:00,
2013-08-29 15:43:00,72.5,64.0,29.57,WSW,247,4.9,7.0,74,0.00,,,0.01,Rainwise IP-100,2013-08-29 19:43:00,
2013-08-29 15:48:00,72.7,64.0,29.56,SW,225,4.9,10.0,74,0.00,,,0.01,Rainwise IP-100,2013-08-29 19:48:00,
2013-08-29 15:53:00,72.7,64.0,29.56,WSW,247,4.7,8.0,74,0.00,,,0.01,Rainwise IP-100,2013-08-29 19:53:00,
2013-08-29 15:58:00,73.0,64.0,29.56,SSW,202,3.7,7.0,73,0.00,,,0.01,Rainwise IP-100,2013-08-29 19:58:00,
2013-08-29 16:03:00,73.3,64.0,29.56,SSW,202,2.3,8.0,73,0.00,,,0.01,Rainwise IP-100,2013-08-29 20:03:00,
2013-08-29 16:08:00,73.3,64.0,29.56,SW,225,5.6,9.0,72,0.00,,,0.01,Rainwise IP-100,2013-08-29 20:08:00,
2013-08-29 16:13:00,73.1,63.0,29.56,SW,225,5.6,9.0,72,0.00,,,0.01,Rainwise IP-100,2013-08-29 20:13:00,
2013-08-29 16:19:00,73.1,64.0,29.56,SSW,202,7.2,9.0,73,0.00,,,0.01,Rainwise IP-100,2013-08-29 20:19:00,
2013-08-29 16:24:00,73.2,64.0,29.56,WSW,247,4.9,10.0,72,0.00,,,0.01,Rainwise IP-100,2013-08-29 20:24:00,
2013-08-29 16:29:00,73.6,64.0,29.57,SSW,202,1.4,6.0,72,0.00,,,0.01,Rainwise IP-100,2013-08-29 20:29:00,
2013-08-29 16:34:00,74.1,64.0,29.55,ENE,67,1.2,5.0,71,0.00,,,0.01,Rainwise IP-100,2013-08-29 20:34:00,
2013-08-29 16:39:00,74.0,64.0,29.56,SSE,157,0.0,8.0,70,0.00,,,0.01,Rainwise IP-100,2013-08-29 20:39:00,
2013-08-29 16:44:00,73.4,62.0,29.56,SW,225,3.5,6.0,69,0.00,,,0.01,Rainwise IP-100,2013-08-29 20:44:00,
2013-08-29 16:49:00,72.8,62.0,29.56,SW,225,2.6,5.0,69,0.00,,,0.01,Rainwise IP-100,2013-08-29 20:49:00,
2013-08-29 16:54:00,73.1,62.0,29.56,SW,225,1.9,5.0,70,0.00,,,0.01,Rainwise IP-100,2013-08-29 20:54:00,
2013-08-29 16:59:00,74.1,64.0,29.56,NNW,337,0.0,5.0,70,0.00,,,0.01,Rainwise IP-100,2013-08-29 20:59:00,
2013-08-29 17:04:00,74.7,64.0,29.56,ENE,67,3.5,4.0,70,0.00,,,0.01,Rainwise IP-100,2013-08-29 21:04:00,
2013-08-29 17:09:00,74.0,63.0,29.56,NE,45,3.3,6.0,68,0.00,,,0.01,Rainwise IP-100,2013-08-29 21:09:00,
2013-08-29 17:14:00,72.7,62.0,29.56,ENE,67,2.6,6.0,69,0.00,,,0.01,Rainwise IP-100,2013-08-29 21:14:00,
2013-08-29 17:19:00,72.4,61.0,29.56,South,180,4.0,8.0,69,0.00,,,0.01,Rainwise IP-100,2013-08-29 21:19:00,
2013-08-29 17:24:00,72.2,62.0,29.55,West,270,7.7,7.7,71,0.00,,,0.01,Rainwise IP-100,2013-08-29 21:24:00,
2013-08-29 17:29:00,71.4,61.0,29.55,NNW,337,4.7,10.0,72,0.00,,,0.01,Rainwise IP-100,2013-08-29 21:29:00,
2013-08-29 17:35:00,70.8,61.0,29.56,ESE,112,3.0,6.0,73,0.00,,,0.01,Rainwise IP-100,2013-08-29 21:35:00,
2013-08-29 17:40:00,70.7,62.0,29.56,SSE,157,4.2,11.0,74,0.00,,,0.01,Rainwise IP-100,2013-08-29 21:40:00,
2013-08-29 17:45:00,70.6,62.0,29.56,ENE,67,2.3,10.0,74,0.00,,,0.01,Rainwise IP-100,2013-08-29 21:45:00,
2013-08-29 17:50:00,70.3,62.0,29.56,WSW,247,3.0,6.0,75,0.00,,,0.01,Rainwise IP-100,2013-08-29 21:50:00,
2013-08-29 17:55:00,70.1,62.0,29.56,ESE,112,1.2,4.0,75,0.00,,,0.01,Rainwise IP-100,2013-08-29 21:55:00,
2013-08-29 18:00:00,70.0,62.0,29.55,NW,315,2.6,6.0,75,0.00,,,0.01,Rainwise IP-100,2013-08-29 22:00:00,
2013-08-29 18:05:00,69.9,62.0,29.56,ENE,67,0.0,3.0,76,0.00,,,0.01,Rainwise IP-100,2013-08-29 22:05:00,
2013-08-29 18:10:00,69.8,62.0,29.56,West,270,2.3,6.0,77,0.00,,,0.01,Rainwise IP-100,2013-08-29 22:10:00,
2013-08-29 18:15:00,69.4,61.0,29.56,WSW,247,0.0,4.0,77,0.00,,,0.01,Rainwise IP-100,2013-08-29 22:15:00,
2013-08-29 18:20:00,69.0,61.0,29.56,ENE,67,0.0,7.0,78,0.00,,,0.01,Rainwise IP-100,2013-08-29 22:20:00,
2013-08-29 18:25:00,68.9,61.0,29.56,SW,225,4.0,4.0,78,0.00,,,0.01,Rainwise IP-100,2013-08-29 22:25:00,
2013-08-29 18:30:00,68.9,61.0,29.56,WSW,247,0.0,4.0,78,0.00,,,0.01,Rainwise IP-100,2013-08-29 22:30:00,
2013-08-29 18:35:00,68.9,61.0,29.56,NE,45,0.0,4.0,78,0.00,,,0.01,Rainwise IP-100,2013-08-29 22:35:00,
2013-08-29 18:40:00,68.9,61.0,29.57,SSE,157,0.0,4.0,78,0.00,,,0.01,Rainwise IP-100,2013-08-29 22:40:00,
2013-08-29 18:45:00,68.8,61.0,29.57,NNW,337,2.3,4.0,78,0.00,,,0.01,Rainwise IP-100,2013-08-29 22:45:00,
2013-08-29 18:51:00,68.7,61.0,29.57,West,270,3.5,6.0,78,0.00,,,0.01,Rainwise IP-100,2013-08-29 22:51:00,
2013-08-29 18:56:00,68.5,61.0,29.57,WSW,247,3.5,6.0,79,0.00,,,0.01,Rainwise IP-100,2013-08-29 22:56:00,
2013-08-29 19:01:00,68.2,61.0,29.57,SW,225,1.9,7.0,79,0.00,,,0.01,Rainwise IP-100,2013-08-29 23:01:00,
2013-08-29 19:06:00,68.0,61.0,29.57,SSW,202,0.0,6.0,80,0.00,,,0.01,Rainwise IP-100,2013-08-29 23:06:00,
2013-08-29 19:11:00,68.0,61.0,29.57,SSW,202,0.0,3.0,80,0.00,,,0.01,Rainwise IP-100,2013-08-29 23:11:00,
2013-08-29 19:16:00,67.9,61.0,29.57,SW,225,2.8,4.0,80,0.00,,,0.01,Rainwise IP-100,2013-08-29 23:16:00,
2013-08-29 19:21:00,67.7,61.0,29.57,SW,225,5.1,6.0,80,0.00,,,0.01,Rainwise IP-100,2013-08-29 23:21:00,
2013-08-29 19:26:00,67.5,61.0,29.57,SSE,157,2.3,6.0,81,0.00,,,0.01,Rainwise IP-100,2013-08-29 23:26:00,
2013-08-29 19:31:00,67.4,61.0,29.57,SW,225,5.1,6.0,81,0.00,,,0.01,Rainwise IP-100,2013-08-29 23:31:00,
2013-08-29 19:36:00,67.2,61.0,29.57,SW,225,2.3,6.0,81,0.00,,,0.01,Rainwise IP-100,2013-08-29 23:36:00,
2013-08-29 19:41:00,67.1,61.0,29.57,SW,225,2.1,4.0,81,0.00,,,0.01,Rainwise IP-100,2013-08-29 23:41:00,
2013-08-29 19:46:00,67.0,61.0,29.57,South,180,0.0,6.0,82,0.00,,,0.01,Rainwise IP-100,2013-08-29 23:46:00,
2013-08-29 19:51:00,67.0,61.0,29.57,NNW,337,0.0,4.0,82,0.00,,,0.01,Rainwise IP-100,2013-08-29 23:51:00,
2013-08-29 19:56:00,66.9,61.0,29.57,WSW,247,0.0,4.0,82,0.00,,,0.01,Rainwise IP-100,2013-08-29 23:56:00,
2013-08-29 20:01:00,66.7,61.0,29.57,WSW,247,2.1,3.0,82,0.00,,,0.01,Rainwise IP-100,2013-08-30 00:01:00,
2013-08-29 20:07:00,66.6,61.0,29.58,WSW,247,0.0,3.0,82,0.00,,,0.01,Rainwise IP-100,2013-08-30 00:07:00,
2013-08-29 20:12:00,66.6,61.0,29.57,South,180,2.3,3.0,83,0.00,,,0.01,Rainwise IP-100,2013-08-30 00:12:00,
2013-08-29 20:17:00,66.6,61.0,29.58,SSW,202,1.2,4.0,83,0.00,,,0.01,Rainwise IP-100,2013-08-30 00:17:00,
2013-08-29 20:22:00,66.6,61.0,29.59,SW,225,1.6,1.6,83,0.00,,,0.01,Rainwise IP-100,2013-08-30 00:22:00,
2013-08-29 20:27:00,66.5,61.0,29.58,NNW,337,2.6,4.0,83,0.00,,,0.01,Rainwise IP-100,2013-08-30 00:27:00,
2013-08-29 20:32:00,66.4,61.0,29.59,WNW,292,0.0,3.0,84,0.00,,,0.01,Rainwise IP-100,2013-08-30 00:32:00,
2013-08-29 20:37:00,66.4,61.0,29.59,SW,225,2.6,5.0,84,0.00,,,0.01,Rainwise IP-100,2013-08-30 00:37:00,
2013-08-29 20:42:00,66.3,61.0,29.59,SSW,202,2.1,4.0,84,0.00,,,0.01,Rainwise IP-100,2013-08-30 00:42:00,
2013-08-29 20:47:00,66.3,61.0,29.59,SW,225,3.5,4.0,84,0.00,,,0.01,Rainwise IP-100,2013-08-30 00:47:00,
2013-08-29 20:52:00,66.2,61.0,29.59,WSW,247,3.5,4.0,84,0.00,,,0.01,Rainwise IP-100,2013-08-30 00:52:00,
2013-08-29 20:57:00,66.1,61.0,29.59,SSW,202,0.0,4.0,84,0.00,,,0.01,Rainwise IP-100,2013-08-30 00:57:00,
2013-08-29 21:02:00,66.1,61.0,29.59,SW,225,0.0,4.0,84,0.00,,,0.01,Rainwise IP-100,2013-08-30 01:02:00,
2013-08-29 21:07:00,66.1,61.0,29.59,SW,225,2.3,2.3,85,0.00,,,0.01,Rainwise IP-100,2013-08-30 01:07:00,
2013-08-29 21:12:00,66.0,61.0,29.59,SE,135,1.4,4.0,85,0.00,,,0.01,Rainwise IP-100,2013-08-30 01:12:00,
2013-08-29 21:17:00,66.1,61.0,29.59,SSW,202,0.0,4.0,85,0.00,,,0.01,Rainwise IP-100,2013-08-30 01:17:00,
2013-08-29 21:23:00,66.0,61.0,29.58,SW,225,1.4,4.0,85,0.00,,,0.01,Rainwise IP-100,2013-08-30 01:23:00,
2013-08-29 21:28:00,65.9,61.0,29.58,WSW,247,0.0,5.0,85,0.00,,,0.01,Rainwise IP-100,2013-08-30 01:28:00,
2013-08-29 21:33:00,65.9,61.0,29.58,West,270,0.0,3.0,85,0.00,,,0.01,Rainwise IP-100,2013-08-30 01:33:00,
2013-08-29 21:38:00,65.8,61.0,29.58,WSW,247,0.0,3.0,85,0.00,,,0.01,Rainwise IP-100,2013-08-30 01:38:00,
2013-08-29 21:43:00,65.8,61.0,29.58,NW,315,0.0,2.0,85,0.00,,,0.01,Rainwise IP-100,2013-08-30 01:43:00,
2013-08-29 21:48:00,65.8,61.0,29.58,West,270,1.6,2.0,85,0.00,,,0.01,Rainwise IP-100,2013-08-30 01:48:00,
2013-08-29 21:52:00,65.8,61.0,29.57,South,180,0.0,3.0,85,0.00,,,0.01,Rainwise IP-100,2013-08-30 01:52:00,
2013-08-29 21:57:00,65.7,61.0,29.57,SSE,157,1.6,2.0,85,0.00,,,0.01,Rainwise IP-100,2013-08-30 01:57:00,
2013-08-29 22:02:00,65.7,61.0,29.57,SW,225,2.1,5.0,85,0.00,,,0.01,Rainwise IP-100,2013-08-30 02:02:00,
2013-08-29 22:07:00,65.6,61.0,29.57,SW,225,4.2,5.0,85,0.00,,,0.01,Rainwise IP-100,2013-08-30 02:07:00,
2013-08-29 22:12:00,65.5,61.0,29.57,SW,225,3.3,4.0,85,0.00,,,0.01,Rainwise IP-100,2013-08-30 02:12:00,
2013-08-29 22:17:00,65.5,61.0,29.58,SW,225,2.8,4.0,86,0.00,,,0.01,Rainwise IP-100,2013-08-30 02:17:00,
2013-08-29 22:22:00,65.5,61.0,29.57,SW,225,2.1,3.0,86,0.00,,,0.01,Rainwise IP-100,2013-08-30 02:22:00,
2013-08-29 22:27:00,65.4,61.0,29.58,SW,225,0.0,3.0,86,0.00,,,0.01,Rainwise IP-100,2013-08-30 02:27:00,
2013-08-29 22:32:00,65.4,61.0,29.57,WSW,247,0.0,1.0,86,0.00,,,0.01,Rainwise IP-100,2013-08-30 02:32:00,
2013-08-29 22:37:00,65.4,61.0,29.57,WSW,247,1.4,3.0,86,0.00,,,0.01,Rainwise IP-100,2013-08-30 02:37:00,
2013-08-29 22:43:00,65.4,61.0,29.57,WSW,247,1.2,2.0,86,0.00,,,0.01,Rainwise IP-100,2013-08-30 02:43:00,
2013-08-29 22:48:00,65.4,61.0,29.57,WSW,247,1.4,1.4,86,0.00,,,0.01,Rainwise IP-100,2013-08-30 02:48:00,
2013-08-29 22:53:00,65.3,60.0,29.57,WSW,247,0.0,2.0,86,0.00,,,0.01,Rainwise IP-100,2013-08-30 02:53:00,
2013-08-29 22:58:00,65.3,61.0,29.57,WSW,247,2.1,2.1,87,0.00,,,0.01,Rainwise IP-100,2013-08-30 02:58:00,
2013-08-29 23:03:00,65.3,61.0,29.57,WSW,247,2.1,2.1,87,0.00,,,0.01,Rainwise IP-100,2013-08-30 03:03:00,
2013-08-29 23:08:00,65.3,61.0,29.56,WSW,247,1.9,2.0,87,0.00,,,0.01,Rainwise IP-100,2013-08-30 03:08:00,
2013-08-29 23:13:00,65.3,61.0,29.56,WSW,247,0.0,2.0,87,0.00,,,0.01,Rainwise IP-100,2013-08-30 03:13:00,
2013-08-29 23:18:00,65.3,61.0,29.56,WSW,247,1.6,2.0,87,0.00,,,0.01,Rainwise IP-100,2013-08-30 03:18:00,
2013-08-29 23:23:00,65.3,61.0,29.56,SW,225,2.8,2.8,87,0.00,,,0.01,Rainwise IP-100,2013-08-30 03:23:00,
2013-08-29 23:28:00,65.3,61.0,29.56,SW,225,2.3,3.0,87,0.00,,,0.01,Rainwise IP-100,2013-08-30 03:28:00,
2013-08-29 23:33:00,65.3,61.0,29.56,SW,225,1.9,2.0,87,0.00,,,0.01,Rainwise IP-100,2013-08-30 03:33:00,
2013-08-29 23:38:00,65.2,61.0,29.56,SW,225,2.1,3.0,87,0.00,,,0.01,Rainwise IP-100,2013-08-30 03:38:00,
2013-08-29 23:43:00,65.2,61.0,29.57,SW,225,2.6,3.0,88,0.00,,,0.01,Rainwise IP-100,2013-08-30 03:43:00,
2013-08-29 23:48:00,65.2,61.0,29.57,WNW,292,0.0,3.0,88,0.00,,,0.01,Rainwise IP-100,2013-08-30 03:48:00,
2013-08-29 23:53:00,65.2,61.0,29.57,SSW,202,3.3,4.0,87,0.00,,,0.01,Rainwise IP-100,2013-08-30 03:53:00,
2013-08-29 23:59:00,65.2,61.0,29.57,SW,225,2.8,4.0,87,0.00,,,0.01,Rainwise IP-100,2013-08-30 03:59:00,